Regional Weather Roundup
Issued by NWS Charleston, SC

Current Version | Previous Version | Text Only | Print | Product List | Glossary Off
Versions: 1 2 3 4 5 6 7 8 9 10 11 12 13 14 15 16 17 18 19 20 21 22 23 24 25 26 27 28 29 30 31 32 33 34 35 36 37 38 39 40 41 42 43 44 45 46 47 48 49 50

000
ASUS42 KCHS 261812
RWRCHS

REGIONAL WEATHER ROUNDUP
NATIONAL WEATHER SERVICE CHARLESTON SC
200 PM EDT WED APR 26 2017

NOTE: "FAIR" INDICATES FEW OR NO CLOUDS BELOW 12,000 FEET WITH NO
SIGNIFICANT WEATHER AND/OR OBSTRUCTIONS TO VISIBILITY.

NOT ALL STATIONS ARE QUALITY CONTROLLED. USE DATA WITH CAUTION...
ESPECIALLY DEWPOINT OBSERVATIONS.

SCZ027-030-031-034>040-042>050-261900-
...SOUTHEAST SOUTH CAROLINA...

CITY           SKY/WX    TMP DP  RH WIND       PRES   REMARKS
N CHARLESTON   MOSUNNY   84  59  42 SW12      29.84F
6HR MIN TEMP:  69; 6HR MAX TEMP:  84;

WATERFRONT PRK   N/A     77  67  71 S14       29.83F
JOHNS ISLAND   FAIR      81  66  61 S13       29.86F
PINOPOLIS        N/A     79  64  61 SW5       29.77F
MONCKS CORNER  FAIR      81  55  41 SW5       29.83F
SUMMERVILLE    FAIR      81  59  47 S3        29.85F
BEAUFORT MCAS  MOSUNNY   83  64  52 S8        29.84F
6HR MIN TEMP:  66; 6HR MAX TEMP:  84;

BEAUFORT ARPT  FAIR      81  61  50 S9        29.85F
HILTON HEAD IS SUNNY     77  63  61 SE12      29.87F
WALTERBORO     PTCLDY    82  59  44 S9        29.84F
ALLENDALE      MOCLDY    82  57  42 VRB6      29.82F

...SOUTHERN MIDLANDS AND PEE DEE...

CITY           SKY/WX    TMP DP  RH WIND       PRES   REMARKS
GEORGETOWN     FAIR      77  70  78 E8        29.85F
KINGSTREE      FAIR      81  55  41 SW7       29.82F
ORANGEBURG     MOSUNNY   81  58  45 W12       29.82F
6HR MIN TEMP:  63; 6HR MAX TEMP:  82;

BARNWELL       FAIR      82  61  47 S8        29.83F
AIKEN          FAIR      81  59  47 S9        29.86F
MANNING        MOCLDY    81  59  47 SW7       29.82F
COLUMBIA       MOSUNNY   85  58  39 VRB7      29.81F
6HR MIN TEMP:  62; 6HR MAX TEMP:  86;

SUMTER         MOSUNNY   82  60  46 SW10      29.79F
6HR MIN TEMP:  63; 6HR MAX TEMP:  83;

FLORENCE       PTSUNNY   82  61  48 SW10G20   29.81F
6HR MIN TEMP:  60; 6HR MAX TEMP:  83;

MYRTLE BEACH   NOT AVBL
N MYRTLE BEACH SUNNY     73  62  68 SE12      29.84F
6HR MIN TEMP:  63; 6HR MAX TEMP:  75;


$$

GAZ063-065-086>088-099>101-113>116-118-119-134>141-150-261900-
...SOUTHEAST GEORGIA...

CITY           SKY/WX    TMP DP  RH WIND       PRES   REMARKS
SAVANNAH ARPT  PTSUNNY   85  58  39 S9        29.84F
6HR MIN TEMP:  64; 6HR MAX TEMP:  85;

HUNTER AAF     SUNNY     82  66  57 SE9       29.83F
6HR MIN TEMP:  65; 6HR MAX TEMP:  83;

FORT STEWART   MOSUNNY   82  58  44 S7        29.82F
6HR MIN TEMP:  64; 6HR MAX TEMP:  82;

STATESBORO     MOSUNNY   83  56  39 S5        29.83F
SYLVANIA       MOCLDY   N/A N/A N/A CALM      29.84F
CLAXTON        FAIR      82  62  49 SE6       29.83F

...CSRA...CENTRAL AND FAR SOUTHEAST GEORGIA...

CITY           SKY/WX    TMP DP  RH WIND       PRES   REMARKS
THOMSON        MOSUNNY   80  57  44 W7        29.88S
AUGUSTA-BUSH   MOSUNNY   83  59  44 S5        29.81F
6HR MIN TEMP:  59; 6HR MAX TEMP:  85;

AUGUSTA-DANIEL SUNNY     82  54  37 VRB5      29.83F
SWAINSBORO     FAIR      81  57  44 S8        29.84F
VIDALIA        PTSUNNY   81  59  47 S8        29.84F
EASTMAN        MOCLDY    83  46  27 S7        29.86F
HAZLEHURST     MOCLDY    81  60  49 S6        29.83F
ALMA           PTSUNNY   82  59  45 SW9       29.84F
6HR MIN TEMP:  60; 6HR MAX TEMP:  82;

WAYCROSS       PTSUNNY   83  61  47 SW6       29.84F
JESUP          MOCLDY    82  55  39 W7        29.85F
BAXLEY         CLOUDY    81  63  54 S6        29.83F
BRUNSWICK      PTSUNNY   81  64  57 S7        29.86F
SAINT SIMONS   SUNNY     78  62  57 S10       29.86F
6HR MIN TEMP:  65; 6HR MAX TEMP:  79;


$$

SCZ027-028-034-036>038-045-046-048>050-GAZ119-141-261900-
...LAKE AND SUPPLEMENTAL COASTAL OBSERVATIONS...

STATION/POSITION TIME  TEMP    WIND        PRES    WAVE   SWELL
                       AIR SEA DIR/SP/G            HT/PER HT/PER/DIR
                 (UTC) (F)     (DEG/KT/KT) (MB)    (FT/S) (FT/S/D)
WINYAH BAY       NOT AVBL
LAKE MURRAY      1720   77     240/  3/  7 1009.5F
ACE BASIN NERRS  1645   81     190/  1     1012.0
FORT PULASKI     1742   77 74  170/  7/ 11 1011.6F
SAPELO ISLAND    1700   77     250/  1     1012.0

$$

ANZ835-935-AMZ111-154-330-350-352-354-370-450-454-472-261900-
...C-MAN AND BUOY OBSERVATIONS...

STATION/POSITION TIME  TEMP    WIND        PRES    WAVE   SWELL
                       AIR SEA DIR/SP/G            HT/PER HT/PER/DIR
                 (UTC) (F)     (DEG/KT/KT) (MB)    (FT/S) (FT/S/D)
BUOY 41004       1750   72 73  240/ 12/ 16 1011.5F   4/10   3/120/10
BUOY 41008       1650   72 73   CALM  /  2 1012.1    2/10   2/100/10
FOLLY BEACH CMAN 1700   73     200/ 14/ 16 1012.3F
CAPERS NEARSHORE 1708   76 73  210/ 14/ 19 1011.4F
FRIPP NEARSHORE  1708   71 74  220/  8/ 12 1011.7F


STATION/POSITION TIME  TEMP    WIND        PRES    WAVE   SWELL
                       AIR SEA DIR/SP/G            HT/PER HT/PER/DIR
                 (UTC) (F)     (DEG/KT/KT) (MB)    (FT/S) (FT/S/D)
5E ST. MARYS GA  1730      75                N/A     2/10   2/ 80/11
FRYING PAN BUOY  1750   71 74  200/  4/  6 1011.4F   4/10   5/130/10
BUOY 41025       1750   68 76  260/ 10/ 14 1010.1F   6/10   5/130/10
CAPE LOOKOUT NC  1700   68     240/  9/ 12 1010.5F
BUOY 41002       1650   74 75  230/ 16/ 19 1012.9    8/ 9   5/120/ 9
BUOY 41010       1750   76 78  220/ 12/ 14 1012.9R   5/ 8   3/120/ 8
ST AUGUSTINE FL  1800   72 75  120/ 11/ 13 1012.6F


$$



USA.gov is the U.S. government's official web portal to all federal, state and local government web resources and services.